User: anonymous   Login
Location: Unspecified
(0.0000°N, 0.0000°E)
Time: 17:03:57
(UTC+00:00)
Language:

LilacSat-2 - Orbit

View from above orbital plane
View from above orbital plane
View from above satellite
View from above satellite

Ground track
Ground track

The orbit data is extracted from the following two-line orbital elements,

1 40908U 15049K   17264.96757953  .00000451  00000-0  29018-4 0  9995
2 40908  97.4647 267.9632 0014764 233.0836 126.9043 15.13226607110800
Epoch (UTC): 21 September 2017 23:13:18
Eccentricity: 0.0014764
inclination: 97.4647°
perigee height: 516 km
apogee height: 536 km
right ascension of ascending node: 267.9632°
argument of perigee: 233.0836°
revolutions per day: 15.13226607
mean anomaly at epoch: 126.9043°
orbit number at epoch: 11080

The dashed part of the orbit path shows where the satellite is in the earth's shadow,  

DLR